This is the latest recevied weather packets stored in our database for station/object KD7JB. If no packets are shown the sender has not sent any weather packets the latest 10 day(s).
| Time | Temp. | Humidity | Pressure | Rain* | Wind** | Luminosity | Snow |
|---|---|---|---|---|---|---|---|
| 1778089514 | 18.33° C | 46% | 1175.5 hPa | 0 mm | - | 652 W/m² | - |
| 1778089210 | 18.89° C | 46% | 1175.5 hPa | 0 mm | - | 624 W/m² | - |
| 1778088908 | 18.33° C | 46% | 1175.8 hPa | 0 mm | - | 643 W/m² | - |
| 1778088604 | 18.89° C | 45% | 1175.6 hPa | 0 mm | - | 630 W/m² | - |
| 1778088302 | 18.33° C | 47% | 1175.7 hPa | 0 mm | - | 604 W/m² | - |
| 1778087998 | 18.33° C | 46% | 1175.7 hPa | 0 mm | - | 610 W/m² | - |
| 1778087695 | 17.78° C | 46% | 1175.5 hPa | 0 mm | - | 595 W/m² | - |
| 1778087393 | 17.78° C | 46% | 1175.5 hPa | 0 mm | - | 591 W/m² | - |
| 1778087090 | 18.33° C | 46% | 1175.5 hPa | 0 mm | - | 579 W/m² | - |
| 1778086788 | 17.78° C | 48% | 1175.6 hPa | 0 mm | - | 569 W/m² | - |
| 1778086486 | 17.78° C | 46% | 1175.6 hPa | 0 mm | - | 558 W/m² | - |
| 1778086182 | 17.78° C | 47% | 1175.4 hPa | 0 mm | - | 542 W/m² | - |
| 1778085879 | 17.22° C | 47% | 1175.6 hPa | 0 mm | - | 535 W/m² | - |
| 1778085577 | 17.22° C | 49% | 1175.6 hPa | 0 mm | - | 484 W/m² | - |
| 1778085271 | 17.22° C | 48% | 1175.5 hPa | 0 mm | - | 466 W/m² | - |
| 1778084966 | 17.22° C | 48% | 1175.6 hPa | 0 mm | - | 507 W/m² | - |
| 1778084665 | 17.22° C | 47% | 1175.6 hPa | 0 mm | - | 488 W/m² | - |
| 1778084362 | 16.67° C | 47% | 1175.6 hPa | 0 mm | - | 472 W/m² | - |
| 1778084060 | 16.67° C | 48% | 1175.5 hPa | 0 mm | - | 458 W/m² | - |
| 1778083757 | 16.67° C | 49% | 1175.5 hPa | 0 mm | - | 445 W/m² | - |
| 1778083454 | 16.67° C | 49% | 1175.6 hPa | 0 mm | - | 432 W/m² | - |
| 1778083152 | 16.67° C | 48% | 1175.5 hPa | 0 mm | - | 419 W/m² | - |
| 1778082849 | 16.67° C | 48% | 1175.5 hPa | 0 mm | - | 405 W/m² | - |
| 1778081725 | 16.67° C | 49% | 1175.5 hPa | 0 mm | - | 351 W/m² | - |
| 1778081423 | 16.11° C | 48% | 1175.7 hPa | 0 mm | - | 345 W/m² | - |
* Rain latest hour (hover to see other rain measurements)
** Current wind speed in m/s (hover to see current wind gust speed)